Location: Pine Mountain Observatory
(43.7910°N, 120.9377°W)
Time: 22:34:07
(UTC-08:00)

Cosmos 1867 - Visible Passes

Search period start: 10 February 2016 00:00
Search period end: 20 February 2016 00:00
Orbit: 773 x 803 km, 65.0° (Epoch: 10 February)

Date Brightness Start Highest point End Pass type
(mag) Time Alt. Az. Time Alt. Az. Time Alt. Az.
10 Feb 5.2 04:05:33 26° NNE 04:05:33 26° NNE 04:07:59 10° NNE visible
10 Feb 5.3 05:46:12 15° NW 05:47:14 16° NNW 05:50:33 10° N visible
11 Feb 5.9 03:34:58 18° NNE 03:34:58 18° NNE 03:36:22 10° NNE visible
11 Feb 5.2 05:15:38 19° NNW 05:15:38 19° NNW 05:19:10 10° N visible
12 Feb 6.4 03:04:20 12° NE 03:04:20 12° NE 03:04:43 10° NE visible
12 Feb 5.3 04:45:00 20° NNW 04:45:00 20° NNW 04:47:45 10° NNE visible
13 Feb 5.5 04:14:20 19° N 04:14:20 19° N 04:16:18 10° NNE visible
14 Feb 5.9 03:43:37 16° NNE 03:43:37 16° NNE 03:44:48 10° NNE visible
14 Feb 5.7 05:24:17 11° NNW 05:25:03 11° NNW 05:26:32 10° N visible
15 Feb 6.3 03:12:53 12° NNE 03:12:53 12° NNE 03:13:17 10° NNE visible
15 Feb 5.7 04:53:33 13° NNW 04:53:33 13° NNW 04:55:29 10° N visible
16 Feb 5.8 04:22:47 13° N 04:22:47 13° N 04:24:13 10° N visible
17 Feb 6.0 03:51:59 13° N 03:51:59 13° N 03:52:52 10° N visible
18 Feb 6.3 03:21:11 11° N 03:21:11 11° N 03:21:28 10° NNE visible
